Franklin, PA

4:17 AM EDT on April 21, 2018 (GMT -0400)
Venango Regional

Weather History for KFKL - December, 2013

Change the Weather History Date:

Tuesday, December 31, 2013

  Actual Average Record
Temperature  
Mean Temperature 16 °F -  
Max Temperature 19 °F 35 °F 64 °F (1971)
Min Temperature 14 °F 18 °F -7 °F (1963)
Degree Days  
Heating Degree Days 48    
Moisture  
Dew Point 10 °F    
Average Humidity 73    
Maximum Humidity 86    
Minimum Humidity 58    
Precipitation  
Precipitation 0.00 in - - ()
Sea Level Pressure  
Sea Level Pressure 30.11 in    
Wind  
Wind Speed 9 mph (SW)    
Max Wind Speed 23 mph    
Max Gust Speed 33 mph    
Visibility 7 miles    
Events      
Averages and records for this station are not official NWS values.
T = Trace of Precipitation, MM = Missing Value Source: NWS Daily Summary

Daily Weather History Graph

Daily Weather History Graph

Search for Another Location

Airport or City:

Astronomy

Dec. 31, 2013 Rise Set
Actual Time 7:45 AM EST 4:59 PM EST
Civil Twilight 7:14 AM EST 5:31 PM EST
Nautical Twilight 6:39 AM EST 6:05 PM EST
Astronomical Twilight 6:05 AM EST 6:39 PM EST
Moon 6:36 AM EST (12/31) 4:34 PM EST (12/31)
Length of Visible Light 10h 16m
Length of Day
9h 14m
Waning Crescent, 1% of the Moon is Illuminated
Dec 31
Waning Crescent
Jan 1
New
Jan 7
First Quarter
Jan 15
Full
Jan 24
Last Quarter

Hourly Weather History & Observations

Time (EST) Temp. Windchill Dew Point Humidity Pressure Visibility Wind Dir Wind Speed Gust Speed Precip Events Conditions
12:15 AM 17.6 °F 12.3 °F 8.6 °F 68% 30.07 in 10.0 mi South 3.5 mph - N/A   Overcast
12:35 AM 17.6 °F 9.3 °F 10.4 °F 73% 30.07 in 10.0 mi South 5.8 mph - N/A   Overcast
12:55 AM 17.6 °F 9.3 °F 10.4 °F 73% 30.06 in 10.0 mi South 5.8 mph - N/A   Overcast
1:15 AM 17.6 °F 10.7 °F 10.4 °F 73% 30.06 in 10.0 mi South 4.6 mph - N/A   Overcast
1:35 AM 17.6 °F 8.2 °F 10.4 °F 73% 30.05 in 10.0 mi South 6.9 mph - N/A   Overcast
1:55 AM 17.6 °F 9.3 °F 10.4 °F 73% 30.05 in 10.0 mi South 5.8 mph - N/A   Overcast
2:15 AM 17.6 °F 10.7 °F 12.2 °F 79% 30.04 in 10.0 mi South 4.6 mph - N/A   Overcast
2:35 AM 17.6 °F 6.4 °F 10.4 °F 73% 30.04 in 10.0 mi South 9.2 mph - N/A   Overcast
2:55 AM 17.6 °F 8.2 °F 12.2 °F 79% 30.04 in 10.0 mi South 6.9 mph - N/A   Overcast
3:15 AM 17.6 °F 7.3 °F 12.2 °F 79% 30.03 in 9.0 mi South 8.1 mph - N/A   Overcast
3:35 AM 17.6 °F 9.3 °F 12.2 °F 79% 30.02 in 10.0 mi South 5.8 mph - N/A   Overcast
3:55 AM 17.6 °F 7.3 °F 12.2 °F 79% 30.02 in 10.0 mi South 8.1 mph - N/A   Overcast
4:15 AM 17.6 °F 6.4 °F 12.2 °F 79% 30.01 in 5.0 mi SSW 9.2 mph - N/A   Overcast
4:35 AM 17.6 °F 7.3 °F 12.2 °F 79% 30.00 in 5.0 mi SSW 8.1 mph - N/A   Overcast
4:55 AM 17.6 °F 7.3 °F 14.0 °F 86% 29.99 in 7.0 mi SSW 8.1 mph - N/A   Overcast
5:15 AM 17.6 °F 7.3 °F 14.0 °F 86% 29.99 in 3.0 mi SSW 8.1 mph - N/A   Overcast
5:35 AM 19.4 °F 9.5 °F 14.0 °F 80% 29.98 in 2.0 mi SSW 8.1 mph - N/A   Overcast
5:55 AM 19.4 °F 8.6 °F 15.8 °F 86% 29.98 in 4.0 mi SSW 9.2 mph - N/A   Overcast
6:15 AM 19.4 °F 7.9 °F 15.8 °F 86% 29.98 in 2.5 mi SSW 10.4 mph - N/A   Overcast
6:35 AM 19.4 °F 8.6 °F 15.8 °F 86% 29.98 in 2.0 mi SW 9.2 mph - N/A   Overcast
6:55 AM 19.4 °F 8.6 °F 15.8 °F 86% 29.98 in 2.5 mi WSW 9.2 mph - N/A   Overcast
7:15 AM 19.4 °F 7.2 °F 15.8 °F 86% 29.98 in 2.0 mi WSW 11.5 mph - N/A   Overcast
7:35 AM 19.4 °F 4.5 °F 15.8 °F 86% 29.99 in 1.8 mi WSW 17.3 mph 21.9 mph N/A   Overcast
7:55 AM 19.4 °F 7.9 °F 14.0 °F 80% 29.99 in 1.5 mi WSW 10.4 mph 20.7 mph N/A   Overcast
8:15 AM 19.4 °F 10.4 °F 14.0 °F 80% 29.99 in 1.2 mi WSW 6.9 mph - N/A   Overcast
8:35 AM 19.4 °F 10.4 °F 14.0 °F 80% 29.99 in 1.2 mi WSW 6.9 mph - N/A   Overcast
8:55 AM 19.4 °F 6.0 °F 15.8 °F 86% 30.00 in 1.5 mi WSW 13.8 mph 17.3 mph N/A   Overcast
9:15 AM 19.4 °F 9.5 °F 15.8 °F 86% 30.01 in 1.0 mi West 8.1 mph - N/A   Overcast
9:35 AM 19.4 °F 4.5 °F 14.0 °F 80% 30.03 in 0.5 mi West 17.3 mph 24.2 mph N/A   Overcast
9:55 AM 19.4 °F 4.5 °F 12.2 °F 74% 30.05 in 2.0 mi West 17.3 mph 20.7 mph N/A   Overcast
10:15 AM 19.4 °F 6.0 °F 12.2 °F 74% 30.06 in 2.0 mi West 13.8 mph 18.4 mph N/A   Overcast
10:35 AM 19.4 °F 6.0 °F 10.4 °F 68% 30.07 in 4.0 mi West 13.8 mph 18.4 mph N/A   Overcast
10:55 AM 17.6 °F 3.2 °F 12.2 °F 79% 30.07 in 2.5 mi West 15.0 mph 25.3 mph N/A   Overcast
11:15 AM 17.6 °F 0.9 °F 10.4 °F 73% 30.09 in 3.0 mi WSW 20.7 mph 25.3 mph N/A   Overcast
11:35 AM 17.6 °F 0.1 °F 8.6 °F 68% 30.10 in 3.0 mi West 23.0 mph 28.8 mph N/A   Mostly Cloudy
11:55 AM 17.6 °F 1.3 °F 8.6 °F 68% 30.10 in 1.2 mi West 19.6 mph 33.4 mph N/A   Overcast
12:15 PM 17.6 °F 3.7 °F 6.8 °F 63% 30.10 in 4.0 mi West 13.8 mph 26.5 mph N/A   Overcast
12:35 PM 17.6 °F 1.3 °F 6.8 °F 63% 30.11 in 5.0 mi West 19.6 mph 28.8 mph N/A   Overcast
12:55 PM 17.6 °F 0.5 °F 6.8 °F 63% 30.12 in 5.0 mi WSW 21.9 mph 28.8 mph N/A   Overcast
1:15 PM 17.6 °F 0.5 °F 6.8 °F 63% 30.14 in 7.0 mi West 21.9 mph 27.6 mph N/A   Overcast
1:35 PM 17.6 °F 2.2 °F 6.8 °F 63% 30.15 in 9.0 mi WSW 17.3 mph 26.5 mph N/A   Overcast
1:55 PM 17.6 °F 2.2 °F 6.8 °F 63% 30.17 in 10.0 mi West 17.3 mph 24.2 mph N/A   Overcast
2:15 PM 17.6 °F 2.2 °F 6.8 °F 63% 30.18 in 4.0 mi West 17.3 mph 31.1 mph N/A   Overcast
2:35 PM 17.6 °F 1.7 °F 6.8 °F 63% 30.18 in 5.0 mi WSW 18.4 mph 29.9 mph N/A   Overcast
2:55 PM 17.6 °F 2.2 °F 8.6 °F 68% 30.19 in 9.0 mi WSW 17.3 mph 24.2 mph N/A   Overcast
3:15 PM 17.6 °F 3.2 °F 6.8 °F 63% 30.19 in 10.0 mi West 15.0 mph 21.9 mph N/A   Overcast
3:35 PM 17.6 °F 5.7 °F 6.8 °F 63% 30.19 in 10.0 mi WSW 10.4 mph 16.1 mph N/A   Overcast
3:55 PM 15.8 °F 5.1 °F 6.8 °F 68% 30.19 in 9.0 mi WSW 8.1 mph - N/A   Overcast
4:15 PM 15.8 °F 3.4 °F 8.6 °F 73% 30.20 in 10.0 mi West 10.4 mph - N/A   Overcast
4:35 PM 15.8 °F 3.4 °F 5.0 °F 62% 30.20 in 10.0 mi WSW 10.4 mph 16.1 mph N/A   Scattered Clouds
4:55 PM 15.8 °F 2.7 °F 3.2 °F 58% 30.20 in 10.0 mi West 11.5 mph - N/A   Mostly Cloudy
5:15 PM 15.8 °F 3.4 °F 5.0 °F 62% 30.21 in 10.0 mi WSW 10.4 mph - N/A   Overcast
5:35 PM 15.8 °F 2.1 °F 5.0 °F 62% 30.22 in 10.0 mi WSW 12.7 mph 16.1 mph N/A   Overcast
5:55 PM 15.8 °F 6.1 °F 5.0 °F 62% 30.21 in 10.0 mi WSW 6.9 mph - N/A   Overcast
6:15 PM 15.8 °F 7.2 °F 6.8 °F 68% 30.21 in 10.0 mi WSW 5.8 mph - N/A   Overcast
6:35 PM 15.8 °F 6.1 °F 6.8 °F 68% 30.21 in 10.0 mi WSW 6.9 mph - N/A   Overcast
6:55 PM 15.8 °F 7.2 °F 6.8 °F 68% 30.21 in 10.0 mi WSW 5.8 mph - N/A   Overcast
7:15 PM 15.8 °F 6.1 °F 6.8 °F 68% 30.21 in 10.0 mi SW 6.9 mph - N/A   Overcast
7:35 PM 15.8 °F 7.2 °F 6.8 °F 68% 30.22 in 10.0 mi WSW 5.8 mph - N/A   Overcast
7:55 PM 14.0 °F 5.1 °F 5.0 °F 67% 30.22 in 10.0 mi SW 5.8 mph - N/A   Mostly Cloudy
8:15 PM 14.0 °F 3.9 °F 6.8 °F 73% 30.22 in 10.0 mi WSW 6.9 mph - N/A   Partly Cloudy
8:35 PM 14.0 °F 3.9 °F 6.8 °F 73% 30.22 in 10.0 mi SW 6.9 mph - N/A   Mostly Cloudy
8:55 PM 14.0 °F 5.1 °F 6.8 °F 73% 30.22 in 10.0 mi WSW 5.8 mph - N/A   Mostly Cloudy
9:15 PM 14.0 °F 2.9 °F 6.8 °F 73% 30.22 in 10.0 mi SW 8.1 mph - N/A   Mostly Cloudy
9:35 PM 14.0 °F 5.1 °F 6.8 °F 73% 30.22 in 10.0 mi SW 5.8 mph - N/A   Mostly Cloudy
9:55 PM 14.0 °F 6.5 °F 6.8 °F 73% 30.22 in 7.0 mi SW 4.6 mph - N/A   Overcast
10:15 PM 14.0 °F 6.5 °F 8.6 °F 79% 30.22 in 8.0 mi SW 4.6 mph - N/A   Overcast
10:35 PM 14.0 °F 3.9 °F 8.6 °F 79% 30.22 in 8.0 mi SW 6.9 mph - N/A   Overcast
10:55 PM 15.8 °F 6.1 °F 8.6 °F 73% 30.22 in 8.0 mi WSW 6.9 mph - N/A   Overcast
11:15 PM 15.8 °F 5.1 °F 10.4 °F 79% 30.23 in 5.0 mi WSW 8.1 mph - N/A   Overcast
11:35 PM 15.8 °F 5.1 °F 10.4 °F 79% 30.23 in 4.0 mi WSW 8.1 mph - N/A   Overcast
11:55 PM 15.8 °F 6.1 °F 10.4 °F 79% 30.23 in 3.0 mi WSW 6.9 mph - N/A   Overcast